Weather History for Ukiah, CA

Change the Weather History Date:

Sunday, October 10, 2010

  Actual Average Record
Temperature  
Mean Temperature 69 °F 62 °F  
Max Temperature 86 °F 80 °F 100 °F (1991)
Min Temperature 51 °F 44 °F 31 °F (1912)
Degree Days  
Heating Degree Days 0 4  
Month to date heating degree days 17 30  
Since 1 July heating degree days 47 63  
Cooling Degree Days 4 1  
Month to date cooling degree days 13 15  
Year to date cooling degree days 761 828  
Growing Degree Days 18 (Base 50)    
Moisture  
Dew Point 53 °F    
Average Humidity 59    
Maximum Humidity 89    
Minimum Humidity 29    
Precipitation  
Precipitation 0.00 in 0.04 in 1.26 in (1947)
Month to date precipitation 0.02 0.15  
Year to date precipitation 32.60 24.12  
Since 1 July precipitation 0.12 0.74  
Snow  
Snow 0.00 in - - ()
Month to date snowfall 0.0  
Since 1 July snowfall 0.0  
Since 1 September snowfall 0.0  
Snow Depth 0.00 in    
Sea Level Pressure  
Sea Level Pressure 30.09 in    
Wind  
Wind Speed 4 mph (NW)    
Max Wind Speed 18 mph    
Max Gust Speed 24 mph    
Visibility 10 miles    
Events      
T = Trace of Precipitation, MM = Missing Value Source: NWS Daily Summary

Daily Weather History Graph

Daily Weather History Graph

Search for Another Location

Airport:

Trip Planner

Search our weather history database for the weather conditions in past years. The results will help you decide how hot, cold, wet, or windy it might be!

Date:

Astronomy

Oct. 10, 2010 Rise Set
Actual Time 7:17 AM PDT 6:41 PM PDT
Civil Twilight 6:50 AM PDT 7:08 PM PDT
Nautical Twilight 6:19 AM PDT 7:39 PM PDT
Astronomical Twilight 5:48 AM PDT 8:10 PM PDT
Moon 10:53 AM PDT (10/10) 8:31 PM PDT (10/10)
Length of Visible Light 12h 17m
Length of Day
11h 23m
Waxing Crescent, 12% of the Moon is Illuminated
Oct 10
Waxing Crescent
Oct 14
First Quarter
Oct 22
Full
Oct 30
Last Quarter
Nov 5
New

Hourly Weather History & Observations

Time (PDT) Temp. Heat Index Dew Point Humidity Pressure Visibility Wind Dir Wind Speed Gust Speed Precip Events Conditions
12:56 AM 60.1 °F - 52.0 °F 75% 30.20 in 10.0 mi Calm Calm - N/A   Clear
1:56 AM 59.0 °F - 52.0 °F 78% 30.19 in 10.0 mi Calm Calm - N/A   Clear
2:56 AM 55.9 °F - 50.0 °F 80% 30.18 in 10.0 mi Calm Calm - N/A   Clear
3:56 AM 55.9 °F - 51.1 °F 84% 30.16 in 10.0 mi Calm Calm - N/A   Clear
4:56 AM 55.9 °F - 50.0 °F 80% 30.15 in 10.0 mi Calm Calm - N/A   Clear
5:56 AM 53.1 °F - 50.0 °F 89% 30.16 in 10.0 mi Calm Calm - N/A   Clear
6:56 AM 52.0 °F - 48.9 °F 89% 30.16 in 10.0 mi Calm Calm - N/A   Clear
7:56 AM 54.0 °F - 50.0 °F 86% 30.15 in 10.0 mi Calm Calm - N/A   Clear
8:56 AM 62.1 °F - 52.0 °F 70% 30.15 in 10.0 mi Calm Calm - N/A   Clear
9:56 AM 68.0 °F - 54.0 °F 61% 30.15 in 10.0 mi North 3.5 mph - N/A   Clear
10:56 AM 75.9 °F - 55.0 °F 48% 30.12 in 10.0 mi Calm Calm - N/A   Clear
11:56 AM 81.0 °F 80.7 °F 55.0 °F 41% 30.10 in 10.0 mi NW 9.2 mph - N/A   Clear
12:56 PM 82.0 °F 81.3 °F 54.0 °F 38% 30.07 in 10.0 mi WNW 13.8 mph 21.9 mph N/A   Clear
1:56 PM 84.0 °F - 48.9 °F 29% 30.04 in 10.0 mi WNW 18.4 mph 24.2 mph N/A   Clear
2:56 PM 84.9 °F - 51.1 °F 31% 30.01 in 10.0 mi WNW 13.8 mph 18.4 mph N/A   Clear
3:56 PM 84.0 °F - 48.9 °F 29% 30.00 in 10.0 mi WNW 16.1 mph 23.0 mph N/A   Clear
4:56 PM 82.0 °F 81.2 °F 53.1 °F 37% 30.00 in 10.0 mi NW 5.8 mph - N/A   Clear
5:56 PM 77.0 °F - 55.9 °F 48% 29.99 in 10.0 mi North 8.1 mph - N/A   Clear
6:56 PM 73.9 °F - 57.0 °F 55% 30.01 in 10.0 mi NNW 9.2 mph 18.4 mph N/A   Clear
7:56 PM 71.1 °F - 57.0 °F 61% 30.01 in 10.0 mi NE 5.8 mph - N/A   Clear
8:56 PM 69.1 °F - 57.0 °F 65% 30.01 in 10.0 mi Calm Calm - N/A   Clear
9:56 PM 64.9 °F - 55.9 °F 73% 30.01 in 10.0 mi Calm Calm - N/A   Clear
10:56 PM 61.0 °F - 55.0 °F 81% 30.02 in 10.0 mi Calm Calm - N/A   Clear
11:56 PM 59.0 °F - 54.0 °F 83% 30.02 in 10.0 mi Calm Calm - N/A   Clear